Date String (YYYY-MM-DD hh:mm:ss) UTC,Instrument flags,absolute air pressure of the measurement (hPa),sample flow rate (lpm),inlet stack bypass flow (lpm),air temperature of the measurement (°C),ambient temperature measured by the external sensor (°C),aerosol sample conditioner tube jacket temperature (°C),OPC LED temperature (°C),internal box temperature (°C),relative humidity of the measurement (%),span deviation,mass concentration of particles derived from Lorenz-Mie calculation of OPC scattering (μg/m³),mass concentration of particles derived from Lorenz-Mie calculation of OPC scattering (μg/m³),mass concentration of particles derived from Lorenz-Mie calculation of OPC scattering (μg/m³)
DateTimeUTC,F1_M11,P_M11,Q1_M11,Q2_M11,T1_M11,T2_M11,T3_M11,T4_M11,T5_M11,U1_M11,ZSPAN_M11,X2_M11,X0_M11,X1_M11
2023-07-27 12:00:00,SystemResetWarning,0833.3,5.00,000.00,029.4,027.5,000.0,037.9,030.9,21.1,0000.0,0002.61,0005.82,0001.78
2023-07-27 12:01:00,SystemResetWarning,0833.4,5.00,000.00,029.4,027.7,000.0,037.9,031.0,21.2,0000.0,0002.60,0006.16,0001.77
2023-07-27 12:02:00,SystemResetWarning,0833.4,5.00,000.00,029.4,027.8,000.0,037.9,031.0,21.1,0000.0,0002.60,0006.27,0001.76
2023-07-27 12:03:00,SystemResetWarning,0833.4,5.00,000.00,029.5,028.0,000.0,038.0,031.1,21.1,0000.0,0002.55,0006.07,0001.76
2023-07-27 12:04:00,SystemResetWarning,0833.4,5.00,000.00,029.5,028.1,000.0,038.0,031.1,21.0,0000.0,0002.58,0005.54,0001.77
2023-07-27 12:05:00,SystemResetWarning,0833.4,5.01,000.00,029.5,028.2,000.0,038.0,031.2,20.9,0000.0,0002.53,0004.90,0001.77
2023-07-27 12:06:00,SystemResetWarning,0833.4,5.00,000.00,029.5,028.3,000.0,038.0,031.2,20.9,0000.0,0002.53,0004.84,0001.77
2023-07-27 12:07:00,SystemResetWarning,0833.4,5.00,000.00,029.6,028.4,000.0,038.0,031.2,20.8,0000.0,0002.56,0004.88,0001.78
2023-07-27 12:08:00,SystemResetWarning,0833.4,5.00,000.00,029.6,028.4,000.0,038.0,031.3,20.7,0000.0,0002.55,0004.91,0001.78
2023-07-27 12:09:00,SystemResetWarning,0833.4,4.99,000.00,029.6,028.5,000.0,038.0,031.3,20.6,0000.0,0002.49,0004.82,0001.77
2023-07-27 12:10:00,SystemResetWarning,0833.4,4.99,000.00,029.7,028.5,000.0,038.1,031.3,20.6,0000.0,0002.46,0004.69,0001.77
2023-07-27 12:11:00,SystemResetWarning,0833.4,5.01,000.00,029.7,028.6,000.0,038.1,031.3,20.6,0000.0,0002.51,0004.77,0001.77
2023-07-27 12:12:00,SystemResetWarning,0833.4,5.00,000.00,029.7,028.1,000.0,038.1,031.3,20.6,0000.0,0002.53,0004.51,0001.77
2023-07-27 12:13:00,SystemResetWarning,0833.4,5.00,000.00,029.7,026.3,000.0,037.9,031.1,20.7,0000.0,0002.53,0004.40,0001.76
2023-07-27 12:14:00,SystemResetWarning,0833.4,5.01,000.00,029.6,025.7,000.0,037.8,031.0,20.6,0000.0,0002.51,0004.38,0001.75
2023-07-27 12:15:00,SystemResetWarning,0833.4,5.01,000.00,029.5,025.8,000.0,037.9,030.8,20.8,0000.0,0002.48,0004.36,0001.74
2023-07-27 12:16:00,SystemResetWarning,0833.4,5.00,000.00,029.5,026.2,000.0,037.9,030.8,21.0,0000.0,0002.49,0004.31,0001.74
2023-07-27 12:17:00,SystemResetWarning,0833.5,5.00,000.00,029.4,026.5,000.0,037.9,030.8,21.1,0000.0,0002.50,0004.30,0001.73
2023-07-27 12:18:00,SystemResetWarning,0833.4,5.01,000.00,029.4,026.9,000.0,038.0,030.9,21.9,0000.0,0002.47,0004.17,0001.73
2023-07-27 12:19:00,SystemResetWarning,0833.4,5.00,000.00,029.4,027.2,000.0,038.0,030.9,21.8,0000.0,0002.45,0004.07,0001.74
2023-07-27 12:20:00,SystemResetWarning,0833.4,5.00,000.00,029.4,027.4,000.0,038.0,031.0,21.7,0000.0,0002.46,0004.01,0001.75
2023-07-27 12:21:00,SystemResetWarning,0833.4,5.00,000.00,029.5,027.6,000.0,038.0,031.0,22.1,0000.0,0002.49,0004.03,0001.75
2023-07-27 12:22:00,SystemResetWarning,0833.5,5.00,000.00,029.5,027.8,000.0,038.0,031.1,22.4,0000.0,0002.43,0003.82,0001.74
2023-07-27 12:23:00,SystemResetWarning,0833.4,5.00,000.00,029.5,028.0,000.0,038.0,031.1,21.9,0000.0,0002.41,0003.69,0001.74
2023-07-27 12:24:00,SystemResetWarning,0833.4,5.00,000.00,029.5,028.1,000.0,038.0,031.1,21.7,0000.0,0002.42,0003.74,0001.74
2023-07-27 12:25:00,SystemResetWarning,0833.4,5.00,000.00,029.5,028.2,000.0,038.0,031.2,21.4,0000.0,0002.42,0003.78,0001.74
2023-07-27 12:26:00,SystemResetWarning,0833.4,5.00,000.00,029.6,028.3,000.0,038.0,031.2,21.2,0000.0,0002.44,0003.78,0001.75
2023-07-27 12:27:00,SystemResetWarning,0833.4,5.00,000.00,029.6,028.4,000.0,038.0,031.3,21.1,0000.0,0002.43,0003.74,0001.76
2023-07-27 12:28:00,SystemResetWarning,0833.4,5.00,000.00,029.6,028.4,000.0,038.0,031.3,20.7,0000.0,0002.35,0003.60,0001.74
2023-07-27 12:29:00,SystemResetWarning,0833.4,5.00,000.00,029.7,028.5,000.0,038.1,031.3,20.3,0000.0,0002.31,0003.51,0001.74
2023-07-27 12:30:00,SystemResetWarning,0833.4,5.00,000.00,029.7,028.5,000.0,038.1,031.3,20.4,0000.0,0002.38,0003.75,0001.74
2023-07-27 12:31:00,SystemResetWarning,0833.4,5.00,000.00,029.7,028.6,000.0,038.1,031.4,20.2,0000.0,0002.45,0004.07,0001.73
2023-07-27 12:32:00,SystemResetWarning,0833.3,5.00,000.00,029.8,028.5,000.0,038.1,031.4,20.1,0000.0,0002.43,0004.03,0001.72
2023-07-27 12:33:00,SystemResetWarning,0833.4,4.97,000.00,029.7,026.9,000.0,038.0,031.2,20.6,0000.0,0002.44,0004.39,0001.73
2023-07-27 12:34:00,SystemResetWarning,0833.3,5.02,000.00,029.7,025.9,000.0,037.9,031.1,22.8,0000.0,0002.43,0004.59,0001.73
2023-07-27 12:35:00,SystemResetWarning,0833.3,5.01,000.00,029.6,026.0,000.0,037.9,030.9,22.3,0000.0,0002.42,0004.56,0001.73
2023-07-27 12:36:00,SystemResetWarning,0833.3,4.99,000.00,029.5,026.3,000.0,038.0,030.8,21.8,0000.0,0002.42,0004.50,0001.74
2023-07-27 12:37:00,SystemResetWarning,0833.3,5.00,000.00,029.5,026.7,000.0,038.0,030.9,21.4,0000.0,0002.47,0004.64,0001.74
2023-07-27 12:38:00,SystemResetWarning,0833.3,5.01,000.00,029.5,027.0,000.0,038.0,030.9,21.2,0000.0,0002.48,0004.68,0001.73
2023-07-27 12:39:00,SystemResetWarning,0833.3,5.01,000.00,029.5,027.3,000.0,038.0,031.0,21.0,0000.0,0002.51,0004.77,0001.74
2023-07-27 12:40:00,SystemResetWarning,0833.3,4.98,000.00,029.5,027.5,000.0,038.0,031.0,21.0,0000.0,0002.55,0004.86,0001.76
2023-07-27 12:41:00,SystemResetWarning,0833.3,5.00,000.00,029.5,027.7,000.0,038.0,031.1,20.8,0000.0,0002.51,0004.75,0001.77
2023-07-27 12:42:00,SystemResetWarning,0833.4,5.01,000.00,029.5,027.9,000.0,038.0,031.1,21.0,0000.0,0002.43,0004.44,0001.78
2023-07-27 12:43:00,SystemResetWarning,0833.4,5.01,000.00,029.6,028.1,000.0,038.0,031.2,20.9,0000.0,0002.42,0004.47,0001.77
2023-07-27 12:44:00,SystemResetWarning,0833.4,4.99,000.00,029.6,028.2,000.0,038.0,031.2,20.8,0000.0,0002.47,0004.19,0001.77
2023-07-27 12:45:00,SystemResetWarning,0833.4,4.99,000.00,029.6,028.3,000.0,038.1,031.2,20.8,0000.0,0002.45,0003.95,0001.77
2023-07-27 12:46:00,SystemResetWarning,0833.4,5.00,000.00,029.7,028.4,000.0,038.1,031.3,20.8,0000.0,0002.49,0004.05,0001.77
2023-07-27 12:47:00,SystemResetWarning,0833.4,5.00,000.00,029.7,028.5,000.0,038.1,031.3,20.7,0000.0,0002.56,0004.24,0001.78
2023-07-27 12:48:00,SystemResetWarning,0833.4,5.01,000.00,029.7,028.5,000.0,038.1,031.4,20.7,0000.0,0002.51,0004.08,0001.78
2023-07-27 12:49:00,SystemResetWarning,0833.4,4.99,000.00,029.7,027.9,000.0,038.1,031.3,20.6,0000.0,0002.47,0004.03,0001.78
2023-07-27 12:50:00,SystemResetWarning,0833.4,5.00,000.00,029.7,026.0,000.0,037.9,031.0,22.0,0000.0,0002.49,0003.97,0001.80
2023-07-27 12:51:00,SystemResetWarning,0833.4,5.01,000.00,029.6,025.1,000.0,037.8,030.8,23.2,0000.0,0002.53,0004.06,0001.80
2023-07-27 12:52:00,SystemResetWarning,0833.4,5.01,000.00,029.5,025.3,000.0,037.8,030.6,22.8,0000.0,0002.51,0004.24,0001.78
2023-07-27 12:53:00,SystemResetWarning,0833.4,4.99,000.00,029.4,025.7,000.0,037.8,030.6,22.3,0000.0,0002.52,0004.40,0001.77
2023-07-27 12:54:00,SystemResetWarning,0833.4,4.99,000.00,029.3,026.1,000.0,037.9,030.7,21.9,0000.0,0002.52,0004.31,0001.78
2023-07-27 12:55:00,SystemResetWarning,0833.4,5.00,000.00,029.3,026.5,000.0,037.9,030.7,21.9,0000.0,0002.48,0004.30,0001.80
2023-07-27 12:56:00,SystemResetWarning,0833.4,5.01,000.00,029.3,026.9,000.0,037.9,030.8,21.8,0000.0,0002.50,0004.40,0001.82
2023-07-27 12:57:00,SystemResetWarning,0833.4,5.00,000.00,029.3,027.1,000.0,037.9,030.8,21.6,0000.0,0002.47,0004.28,0001.82
2023-07-27 12:58:00,SystemResetWarning,0833.4,5.00,000.00,029.3,027.4,000.0,037.9,030.9,22.1,0000.0,0002.43,0004.34,0001.81
2023-07-27 12:59:00,SystemResetWarning,0833.4,4.99,000.00,029.4,027.6,000.0,037.9,030.9,22.2,0000.0,0002.50,0004.58,0001.82
